Vancouver, WA
on Tuesday, February 5, 2013

Tuesday
Previous Day Next Day
Daily Summary
 ActualAverageRecord
Temperature
Mean Temperature °F 43°F  
Max Temperature 51°F 50°F 61°F (1907)
Min Temperature 43°F 35°F 13°F (1899)
Degree Days
Heating Degree Days 18    
Month to date heating degree days 106  
Since 1 July heating degree days 2529  
Cooling Degree Days 0    
Month to date cooling degree days 0  
Year to date cooling degree days 0  
Moisture
Dew Point 41°F   
Average Humidity 78    
Maximum Humidity 89    
Minimum Humidity 66    
Precipitation
Precipitation 0.10 in 0.18 in 1.42 in (1968)
Month to date precipitation 0.10 0.89  
Year to date precipitation 3.50 6.39  
Snow
Snow 0.00 in in in ()
Month to date snowfall 0.0  
Snow Depth 0.00 in   
Wind
Wind Speed 6 mph   
Max Wind Speed 14 mph   
Max Gust Speed 18 mph   
Visibility 10 miles   
Events Rain   

Key: T is trace of precipitation, MM is missing value
Source: NWS Daily Summary
Time(PST)TemperatureDew PointHumidity Pressure Visibility Wind DirectionWind SpeedGust SpeedPrecipitationEvents Conditions
12:53 AM 45.0°F 39.9°F 82% 29.97 in 10.0 miles ESE 5.8 mph - N/A   Overcast
1:53 AM 45.0°F 41.0°F 86% 29.98 in 10.0 miles ESE 4.6 mph - N/A   Overcast
2:53 AM 46.0°F 39.9°F 79% 29.98 in 10.0 miles SE 4.6 mph - N/A   Overcast
3:53 AM 45.0°F 39.9°F 82% 29.95 in 10.0 miles ESE 4.6 mph - N/A   Overcast
4:53 AM 46.9°F 39.0°F 74% 29.95 in 10.0 miles SE 4.6 mph - 0.00 in   Overcast
5:53 AM 46.0°F 39.9°F 79% 29.95 in 10.0 miles Variable 5.8 mph - 0.03 in Rain Light Rain
7:48 AM 46.4°F 39.2°F 76% 29.94 in 10.0 miles SE 5.8 mph - 0.00 in   Overcast
7:53 AM 46.0°F 39.9°F 79% 29.94 in 10.0 miles SE 5.8 mph - 0.00 in   Overcast
8:00 AM 46.4°F 39.2°F 76% 29.94 in 10.0 miles SE 5.8 mph - N/A   Overcast
8:53 AM 46.9°F 41.0°F 80% 29.95 in 10.0 miles SE 6.9 mph - N/A   Overcast
9:53 AM 46.9°F 42.1°F 83% 29.96 in 10.0 miles South 5.8 mph - N/A   Mostly Cloudy
10:05 AM 48.2°F 42.8°F 82% 29.95 in 10.0 miles South 6.9 mph - N/A   Mostly Cloudy
10:50 AM 48.2°F 42.8°F 82% 29.96 in 10.0 miles South 4.6 mph - N/A   Overcast
10:53 AM 48.9°F 42.1°F 77% 29.97 in 10.0 miles South 6.9 mph - N/A   Overcast
11:01 AM 50.0°F 42.8°F 76% 29.96 in 10.0 miles South 8.1 mph - N/A   Overcast
11:53 AM 50.0°F 41.0°F 71% 29.96 in 10.0 miles South 6.9 mph - N/A   Mostly Cloudy
12:48 PM 46.4°F 39.2°F 76% 29.95 in 2.0 miles South 8.1 mph - 0.04 in Rain Light Rain
12:53 PM 48.0°F 39.9°F 74% 29.96 in 9.0 miles SSW 6.9 mph - 0.04 in Rain Light Rain
1:53 PM 50.0°F 43.0°F 77% 29.94 in 10.0 miles Variable 4.6 mph - 0.00 in Rain Light Rain
2:53 PM 51.1°F 42.1°F 71% 29.94 in 10.0 miles South 4.6 mph - 0.00 in   Overcast
3:53 PM 50.0°F 39.9°F 68% 29.96 in 10.0 miles Variable 3.5 mph - 0.00 in   Overcast
4:53 PM 48.9°F 42.1°F 77% 29.96 in 9.0 miles South 3.5 mph - 0.01 in Rain Light Rain
5:53 PM 46.9°F 41.0°F 80% 29.97 in 10.0 miles SSW 3.5 mph - 0.01 in   Scattered Clouds
6:53 PM 46.9°F 39.9°F 77% 29.99 in 10.0 miles South 5.8 mph - N/A   Overcast
7:53 PM 46.0°F 39.9°F 79% 30.00 in 10.0 miles SSE 6.9 mph - N/A   Overcast
8:53 PM 46.0°F 39.9°F 79% 30.02 in 10.0 miles Variable 3.5 mph - N/A   Mostly Cloudy
9:53 PM 46.0°F 39.9°F 79% 30.04 in 10.0 miles South 6.9 mph - 0.00 in   Overcast
10:53 PM 45.0°F 39.0°F 80% 30.04 in 10.0 miles SSW 6.9 mph - N/A   Scattered Clouds
11:53 PM 46.0°F 39.9°F 79% 30.06 in 10.0 miles SSW 5.8 mph 17.3 mph 0.00 in   Scattered Clouds
Moon Phase
Feb. 05 Feb. 10 Feb. 17 Feb. 25 Mar. 04
Sunrise:07:26 AM (PST) Moon Rise:03:19 AM (PST)2/5
Sunset:05:23 PM (PST) Moon Set:12:40 PM (PST)2/5

Copyright © 2014 The Weather Underground, Inc.